[Date Prev][Date Next][Thread Prev][Thread Next] - [Date Index][Thread Index][Author Index]

2 Line ISS Keps 5-6



ISS
1 25544U 98067A   05126.30103566  .00011733  00000-0  93068-4 0  4066
2 25544 051.6433 115.3902 0008029 087.4238 043.3594 15.71775185369098
----
Via the sarex mailing list at AMSAT.ORG courtesy of AMSAT-NA.
To unsubscribe, send "unsubscribe sarex" to Majordomo@amsat.org



AMSAT Top AMSAT Home